Location: Newark
(33.6333°S, 78.8500°W)
Time: 01:11:58
(UTC+00:00)

Tiros 1 - Pass Details

Date: 25 October 2019
Orbit: 630 x 664 km, 48.4° (Epoch: 17 November)

Event Time Altitude Azimuth Distance (km) Brightness Sun altitude
Rises 22:37:56 0° 229° (SW) 2,942 11.5 11.2°
Reaches altitude 10° 22:40:20 10° 224° (SW) 2,028 10.7 10.7°
Maximum altitude 22:44:54 54° 146° (SE) 770 7.6 9.7°
Drops below altitude 10° 22:49:27 10° 67° (ENE) 2,013 9.1 8.8°
Sets 22:51:49 0° 62° (ENE) 2,919 9.9 8.3°
